GFSWCAN_sfc_thetae_057.txt.gz
Theta_e
305 305 305 306 306 307 307 307 305 303 302 302 302 302 302 301 302 298 293 294 292 288 287 289 290 285 284 284 283 284 283 285 284 283 286 284 278 282 279 285 284 280 278 278 283 281 276 294 293 288 292 296 296 295
305 305 305 305 306 307 307 306 304 303 302 302 301 301 301 301 302 301 292 295 296 291 287 291 292 293 292 291 285 284 284 287 287 281 284 282 281 280 280 273 287 277 286 284 282 280 289 294 295 298 299 296 293 292
306 305 305 305 306 307 307 305 304 302 302 301 301 301 301 301 302 301 295 293 294 288 285 284 286 291 294 294 296 283 285 290 289 295 289 288 285 284 282 283 283 287 289 283 286 288 292 296 296 298 297 292 293 295
305 305 305 305 306 306 306 305 303 302 301 301 301 301 301 302 302 300 294 293 294 290 283 283 293 291 295 294 293 294 292 294 296 296 291 289 286 290 283 286 285 288 289 288 289 292 295 296 297 295 292 294 295 297
304 305 305 305 306 306 306 304 302 302 301 301 301 301 301 301 301 299 295 296 296 287 281 283 290 293 294 295 294 296 294 294 293 292 290 288 291 289 291 289 286 290 288 288 287 294 293 295 295 295 294 295 296 296
304 304 304 305 306 306 306 304 302 301 301 300 301 301 302 302 301 294 287 297 296 293 288 282 289 290 295 297 297 295 294 294 295 293 292 293 295 292 287 285 290 293 296 297 294 298 298 296 294 297 296 295 296 296
304 304 303 304 306 306 305 303 301 301 300 300 301 301 301 301 298 290 287 295 299 298 290 286 283 289 293 296 299 297 297 296 296 294 292 293 293 293 288 285 292 296 297 299 300 296 293 294 292 296 296 296 297 297
303 302 302 302 305 306 304 302 301 300 300 300 301 301 302 302 300 295 296 300 301 291 293 284 282 285 293 289 289 300 296 296 296 294 294 292 293 292 287 292 295 297 299 300 297 296 294 295 296 296 295 296 294 294
303 302 302 303 305 305 303 301 300 299 300 300 301 303 298 295 293 298 306 304 301 295 288 287 284 281 291 289 289 293 297 290 296 291 292 292 290 286 291 294 296 298 298 297 297 295 296 293 294 293 293 294 293 294
302 302 302 304 305 304 301 299 299 299 300 300 297 294 295 296 303 305 299 294 294 294 292 285 290 286 291 291 286 288 292 291 288 291 295 289 289 296 298 300 301 301 299 297 293 292 292 292 293 292 293 294 294 294
302 302 302 303 305 303 299 298 298 299 296 290 287 288 291 297 292 289 287 289 290 287 289 289 288 286 291 288 289 293 284 289 287 289 290 286 287 292 295 296 302 300 300 297 295 295 295 295 294 293 293 294 293 293
302 302 302 304 304 300 299 297 297 292 290 290 291 293 291 290 288 284 283 290 287 286 290 286 285 288 288 296 292 292 289 292 286 294 291 287 288 291 292 295 302 300 299 296 296 295 295 295 296 295 293 293 293 293
302 303 303 304 302 299 298 297 297 298 296 294 291 289 286 285 279 283 280 281 281 286 287 287 284 286 287 293 291 290 288 286 293 287 286 288 290 291 292 299 303 298 298 297 296 297 295 295 296 295 293 294 293 293
303 303 304 302 300 298 298 297 298 295 292 290 288 278 282 283 284 282 281 282 285 286 286 284 282 283 286 287 290 286 290 290 283 280 282 287 289 290 295 299 301 299 297 297 296 297 295 296 295 295 294 294 293 292
303 304 303 300 299 297 297 298 297 294 292 289 287 277 282 285 285 285 285 284 285 285 283 283 284 285 284 287 289 287 286 281 282 280 284 288 290 291 293 296 299 301 297 296 296 295 295 296 294 294 294 294 293 293
303 301 297 298 298 297 297 296 294 294 292 288 286 283 284 283 282 283 283 285 287 285 285 285 283 283 284 284 283 279 278 276 280 284 287 290 290 291 293 296 302 304 302 295 296 296 296 296 295 294 294 294 293 293
298 293 297 297 297 298 297 293 293 291 288 287 283 286 283 283 283 284 285 287 288 285 281 282 280 279 286 278 274 280 277 281 284 286 289 290 290 291 293 296 300 303 302 299 296 296 295 296 296 295 293 294 294 294
293 296 298 297 297 295 293 293 292 290 285 286 283 285 285 286 285 286 288 288 287 286 284 283 284 279 278 273 274 282 284 286 287 287 288 289 291 292 294 295 298 301 303 298 297 296 296 295 293 293 294 294 294 293
295 298 298 299 295 293 291 292 292 286 286 286 287 286 288 288 288 288 286 286 288 287 285 282 280 279 279 283 282 284 285 285 284 285 287 289 290 292 294 295 296 299 304 301 295 294 295 295 294 294 293 294 291 293
299 300 299 298 295 291 291 289 292 286 284 286 286 287 286 286 286 284 284 284 284 282 281 281 281 284 284 287 287 286 286 287 286 284 285 288 291 292 292 293 293 297 299 300 301 293 294 293 294 294 293 293 292 291
294 296 297 293 290 291 290 289 286 287 286 284 288 287 285 285 283 282 282 283 281 279 280 284 285 287 289 290 289 285 287 288 286 287 286 287 290 290 290 291 292 294 293 294 294 299 293 293 293 294 293 292 292 293
293 297 291 293 291 292 288 289 287 287 285 285 285 288 284 282 281 281 283 281 280 284 286 286 287 288 288 289 286 286 288 289 290 289 289 289 288 288 288 289 290 290 290 291 291 293 297 294 293 293 293 292 292 292
296 295 292 292 289 285 284 290 285 286 283 284 285 285 284 282 283 285 278 283 283 289 288 288 289 289 288 290 288 285 286 288 288 289 288 287 288 289 289 290 290 289 288 289 291 292 295 294 292 293 293 293 293 291
296 291 288 287 285 282 288 285 286 284 285 282 282 283 284 283 285 280 277 280 285 287 286 287 288 286 284 283 282 282 283 287 287 289 290 287 286 286 288 289 289 290 289 289 291 291 293 295 295 295 295 292 292 291
284 283 283 278 286 284 284 284 284 282 282 283 283 282 282 285 282 279 278 275 280 284 285 286 286 282 280 281 282 281 282 282 285 286 286 288 287 287 287 287 288 289 289 288 288 289 290 292 294 296 298 295 291 291
277 282 281 283 283 284 283 282 282 282 283 283 284 285 282 279 278 278 277 279 282 283 279 285 280 279 279 281 279 278 279 280 281 286 284 284 285 285 283 284 284 285 288 288 288 287 287 289 290 292 295 295 288 292
277 279 284 289 287 287 284 285 285 282 282 282 283 282 280 276 277 281 282 284 285 286 285 284 285 283 280 280 280 280 280 280 280 280 282 282 282 283 283 283 284 284 287 288 287 286 286 287 288 289 291 294 294 293
283 284 281 283 284 284 283 283 283 282 283 285 285 281 279 277 279 282 283 284 284 283 283 283 283 284 282 281 280 279 279 279 279 280 279 280 281 282 282 283 286 285 286 286 285 285 286 285 285 287 289 291 295 294
283 285 286 282 283 283 285 284 284 286 288 287 283 280 281 284 281 280 283 284 283 282 280 280 281 283 281 280 280 279 278 275 277 275 274 274 275 277 281 281 283 284 284 284 284 283 283 284 285 286 288 290 294 298
283 287 283 285 283 283 286 287 286 286 286 285 285 283 281 280 282 283 284 281 280 279 280 280 280 280 278 278 277 278 278 277 273 273 270 271 273 278 279 280 280 282 282 282 282 281 282 284 284 285 286 289 292 292
286 286 285 285 285 287 287 288 287 287 286 284 284 281 279 280 282 283 282 280 280 280 280 279 279 279 279 278 277 275 275 277 277 277 277 276 276 276 278 279 280 281 280 279 280 279 278 280 280 280 280 281 283 284
285 285 284 282 283 287 289 287 284 283 282 281 280 281 280 278 277 279 281 280 280 279 279 279 279 278 279 279 279 279 278 278 278 278 278 277 276 277 277 277 279 280 279 277 277 277 276 276 277 278 278 279 280 280
283 285 286 286 284 286 287 287 286 282 282 280 281 281 280 277 274 277 283 284 280 276 277 279 279 279 281 281 280 280 279 279 278 277 276 276 276 276 276 276 278 279 278 277 276 275 274 274 274 275 276 277 278 279

GFSWCAN_sfc_thetae_060.txt.gz
Theta_e
306 306 306 306 306 305 306 307 307 306 304 303 302 302 302 301 301 296 292 292 293 288 287 288 289 284 283 282 278 282 282 284 283 280 285 283 281 282 278 283 282 277 280 279 282 279 275 292 291 285 289 296 296 296
306 305 305 305 305 305 306 307 307 306 304 303 302 302 302 301 301 300 290 294 295 291 286 289 291 292 291 289 284 283 282 283 285 280 280 281 278 281 281 273 285 278 282 278 279 278 286 291 292 295 298 296 294 293
306 306 305 305 305 305 306 306 307 306 304 303 302 301 301 302 301 300 294 295 293 289 284 283 285 289 292 292 292 282 283 288 288 293 290 287 284 286 278 280 282 286 288 284 285 286 289 293 295 297 297 295 293 293
306 306 305 305 305 305 306 306 306 305 304 302 301 301 301 302 302 300 295 293 294 290 282 283 292 291 295 292 291 292 290 290 293 295 290 288 285 290 284 283 283 288 289 285 285 289 293 294 296 297 295 293 294 296
305 305 305 305 305 305 306 306 306 305 303 302 301 301 301 301 302 298 294 296 297 287 282 283 289 294 295 293 291 291 291 289 292 292 289 287 287 288 286 289 287 290 288 287 285 292 292 294 296 296 292 292 294 295
304 304 303 303 303 304 305 306 306 304 303 302 301 301 301 301 301 292 287 295 294 295 287 282 287 289 291 293 293 292 292 291 292 293 292 292 295 291 287 284 291 293 296 296 293 297 297 297 297 296 294 293 296 295
304 304 303 303 303 303 304 306 306 304 303 302 301 301 301 301 297 289 286 293 298 296 289 285 282 288 291 292 294 294 292 292 292 292 292 293 293 293 287 285 292 296 297 298 299 298 292 295 292 296 296 295 296 296
303 303 303 303 302 302 303 305 306 303 302 301 300 301 301 302 299 294 297 300 300 293 290 283 281 285 291 287 286 296 295 296 296 294 295 292 293 292 286 291 293 295 297 299 299 297 295 295 295 295 295 294 293 294
303 303 303 302 302 302 303 305 304 301 300 300 300 302 298 294 292 296 304 304 299 294 287 287 283 281 290 287 287 288 298 290 296 291 292 292 290 285 290 290 291 294 298 298 297 295 294 293 293 294 293 293 292 292
303 303 302 302 302 302 303 304 300 298 299 300 297 294 294 296 302 305 299 294 293 293 292 285 290 283 287 286 288 289 292 291 288 291 295 287 286 292 292 292 293 296 301 298 293 291 291 291 292 293 292 293 292 291
303 303 302 302 302 303 304 300 298 298 297 290 287 288 290 297 293 288 285 289 289 286 288 288 288 285 288 286 286 293 289 289 286 290 290 285 284 288 291 291 295 300 300 297 295 294 294 294 294 294 293 291 291 291
303 303 302 303 303 304 302 299 298 294 290 290 290 293 291 290 287 283 283 289 287 284 289 286 284 287 286 288 290 292 288 291 286 294 288 282 287 290 289 291 295 298 299 297 296 294 295 295 296 295 293 292 292 292
303 302 302 302 302 303 300 298 298 297 296 294 290 289 286 285 279 282 280 280 280 285 286 285 283 284 285 290 290 289 286 286 292 286 284 286 288 289 290 292 292 298 301 298 296 296 296 296 296 294 293 293 293 292
303 302 302 302 303 301 299 298 298 297 292 289 287 278 282 282 283 282 280 280 284 285 285 282 282 281 283 284 289 285 288 288 282 277 279 285 286 288 291 290 293 294 301 297 296 296 295 295 294 295 294 293 292 291
302 302 303 303 302 299 298 298 298 294 291 288 286 277 281 285 283 284 284 283 285 284 283 282 284 285 285 286 286 284 282 278 279 277 282 285 288 289 289 290 291 296 299 301 295 294 295 295 295 294 295 294 293 292
303 302 300 302 300 298 298 298 295 293 290 288 285 282 282 282 281 282 283 284 287 285 283 284 282 281 281 282 276 276 273 276 278 281 285 287 287 288 289 290 293 296 298 301 295 295 295 295 294 294 295 294 293 293
301 295 301 300 298 298 298 293 292 290 288 285 282 284 283 282 282 283 284 286 287 284 281 281 279 279 280 272 275 280 277 280 284 285 286 287 286 287 289 291 294 295 298 300 296 295 295 296 296 294 292 293 294 294
293 297 300 298 297 295 293 292 291 289 285 285 282 283 284 284 284 286 287 287 286 285 283 282 282 277 278 270 271 281 284 285 286 286 286 288 289 290 292 291 293 294 297 299 297 296 295 295 294 293 293 293 294 294
296 298 298 298 295 293 290 290 291 285 285 285 286 286 287 286 286 286 285 286 286 286 283 281 279 273 275 281 281 282 284 285 284 286 287 289 290 291 291 292 292 293 294 296 298 294 295 294 294 294 293 293 292 293
299 298 299 298 295 291 290 289 292 285 282 285 287 286 286 285 284 284 283 283 282 281 281 279 280 281 282 286 287 286 285 286 287 285 285 288 290 290 290 291 290 292 292 293 294 294 296 294 294 294 293 292 292 291
295 296 298 293 290 291 289 287 284 285 285 284 287 286 283 284 282 282 281 282 281 280 278 281 282 286 288 290 287 283 286 288 287 288 286 285 288 289 289 290 291 291 290 290 290 291 293 296 293 294 294 292 292 293
293 296 291 292 290 290 287 288 286 286 284 285 286 286 283 282 281 281 281 280 279 283 282 285 286 288 287 288 284 283 284 288 289 290 289 287 286 286 287 289 289 289 288 288 289 290 292 295 294 294 293 292 292 293
296 295 292 292 288 284 282 289 285 285 282 283 285 284 283 282 282 283 278 282 282 286 288 288 288 287 286 287 284 282 284 286 287 288 289 287 287 288 287 288 288 288 286 287 289 290 291 290 294 295 294 294 293 292
296 291 288 286 285 281 287 283 285 283 283 282 282 283 283 282 283 279 278 282 279 283 286 286 287 283 282 282 280 279 280 282 287 288 286 286 285 286 287 287 287 288 287 287 288 289 290 290 290 294 296 293 292 291
283 283 284 278 286 283 282 283 283 282 282 282 283 282 282 284 278 277 278 280 277 277 285 286 284 280 280 280 279 278 279 279 282 285 282 283 284 284 284 286 287 286 286 285 286 286 287 288 289 291 294 295 292 291
277 282 280 283 283 283 283 281 282 282 282 282 283 284 282 280 279 279 277 278 277 279 283 279 278 278 278 279 277 276 277 278 279 280 280 280 281 280 280 281 282 283 285 286 285 284 285 286 287 287 290 291 290 291
275 278 283 288 287 286 283 284 284 282 282 282 283 282 281 278 277 280 281 282 280 281 284 284 283 281 280 278 278 279 278 278 279 280 280 279 280 281 279 279 280 283 284 285 285 284 283 284 284 285 287 289 292 294
283 284 281 283 284 284 282 282 282 282 283 285 284 281 280 278 277 281 282 283 284 284 283 283 283 282 280 279 278 277 277 277 279 279 278 278 279 280 280 281 282 283 284 284 284 283 282 282 283 284 285 287 289 293
283 285 285 282 283 282 283 283 284 285 287 286 282 281 281 282 280 278 282 283 283 282 280 280 280 280 279 279 279 277 277 275 277 275 274 273 274 276 278 279 280 282 281 281 282 282 281 281 283 284 285 287 289 292
282 286 283 284 282 282 285 287 285 285 285 285 284 282 280 279 280 283 282 282 281 280 280 281 279 278 276 277 276 277 277 277 274 274 271 271 272 276 277 278 279 280 280 279 279 279 279 280 281 283 283 284 284 284
285 285 284 284 284 286 285 286 286 286 285 282 283 281 279 280 282 283 280 280 280 279 280 278 277 278 278 277 276 276 275 276 276 277 276 276 275 276 277 278 278 279 279 278 277 277 276 277 278 278 279 279 280 281
284 283 283 281 283 286 288 285 283 282 282 281 280 281 281 279 277 280 281 281 280 279 278 278 278 278 278 278 278 277 277 278 278 278 278 277 276 276 276 276 278 279 278 277 276 276 275 274 275 275 276 277 278 279
283 285 285 284 284 284 286 285 283 281 281 280 280 281 279 278 275 278 283 281 279 279 277 278 278 279 279 279 279 278 277 278 277 277 276 276 275 275 275 275 277 278 277 277 276 275 274 273 273 272 273 274 275 278

GFSWCAN_sfc_thetae_063.txt.gz
Theta_e
307 307 307 306 305 303 304 306 306 307 307 305 303 302 302 301 301 300 296 297 295 289 289 290 291 288 288 288 284 287 287 290 290 286 286 285 283 287 285 288 287 285 284 284 284 282 280 297 295 288 295 298 299 298
307 307 306 305 305 303 304 305 306 307 307 305 303 302 302 302 301 301 295 298 298 291 289 293 294 294 293 293 290 290 288 288 290 289 289 288 284 287 285 282 290 285 289 286 287 288 296 297 296 299 300 299 299 297
308 307 306 305 304 303 304 305 306 307 306 305 303 302 301 301 302 301 298 298 295 290 290 288 290 294 296 295 297 288 290 292 292 296 291 290 285 289 283 286 288 290 293 289 289 292 294 296 298 300 301 300 300 300
307 307 306 305 304 303 303 305 306 306 306 305 303 302 302 302 302 301 297 298 295 290 283 288 295 294 298 297 295 295 294 296 297 298 292 288 286 292 287 289 288 291 292 290 290 293 294 297 299 300 299 300 299 298
307 307 306 305 304 303 303 304 305 306 306 305 304 302 302 302 302 301 299 298 298 291 286 288 294 296 298 297 295 294 292 292 291 292 290 289 290 291 292 291 288 293 290 287 287 293 291 295 300 300 298 297 297 296
306 306 306 305 304 303 303 303 303 305 306 305 304 302 301 301 301 296 291 298 299 297 288 284 294 294 296 297 296 295 293 292 292 292 292 294 297 291 287 287 293 295 294 295 293 297 296 299 301 299 295 294 295 295
306 305 305 304 303 302 302 302 303 305 306 304 302 301 300 301 299 292 290 297 298 297 289 286 288 294 295 296 300 295 294 293 293 292 291 293 293 293 288 286 291 292 294 295 298 300 295 297 294 295 295 296 295 295
306 305 304 303 303 302 302 302 303 305 305 302 300 301 301 301 300 295 299 300 299 294 293 285 286 290 296 294 294 300 293 294 294 294 295 293 293 292 287 290 291 291 292 296 297 300 299 298 297 295 296 295 293 293
306 305 304 303 303 303 302 303 303 305 302 299 299 301 300 297 293 296 303 303 300 294 288 288 285 284 295 294 295 294 298 291 298 292 292 292 290 287 288 289 288 289 292 297 299 298 297 296 295 295 295 293 291 290
305 305 304 303 303 302 302 302 303 302 298 298 298 296 293 295 302 304 299 294 294 294 293 286 291 287 292 292 291 293 295 292 288 293 293 287 289 291 290 290 290 293 295 300 297 295 295 295 294 294 293 293 291 291
305 304 304 303 303 302 303 303 301 298 297 292 289 290 293 298 297 293 289 289 290 286 290 289 290 288 294 288 288 292 290 292 287 289 289 287 286 288 290 290 292 293 296 299 302 298 298 296 295 293 292 292 291 292
305 304 304 303 303 303 303 301 298 295 292 292 292 295 294 292 289 285 285 289 288 285 290 288 290 291 293 294 289 291 288 290 286 293 289 284 288 289 289 290 291 293 294 298 303 298 297 297 296 294 292 291 291 292
304 304 303 303 303 303 303 299 297 297 298 296 292 290 289 289 284 283 282 285 285 290 292 292 289 291 292 293 292 290 286 286 293 287 284 286 288 289 289 290 290 292 295 298 301 299 297 297 297 295 292 293 292 292
304 303 303 303 303 303 300 299 297 298 294 290 288 283 285 284 286 287 286 286 289 291 290 289 288 289 291 290 290 286 288 290 283 280 281 286 287 288 289 290 290 291 294 297 300 298 297 296 295 295 294 293 292 292
303 303 303 302 302 301 299 298 299 297 292 289 289 282 284 289 288 288 288 289 290 291 290 288 290 291 288 287 286 285 283 280 280 279 283 287 289 289 289 289 290 292 294 295 300 297 297 296 295 294 295 294 293 293
303 302 300 302 301 299 298 298 296 294 292 290 288 285 286 286 286 287 288 290 292 291 290 291 287 285 282 283 281 277 278 277 280 284 287 288 287 289 289 290 292 293 294 297 300 299 298 297 295 295 295 295 294 293
301 296 302 301 299 297 297 294 293 290 289 286 285 288 288 288 288 289 291 292 293 290 287 287 282 279 285 280 277 282 279 282 285 286 288 288 288 289 290 291 291 293 294 296 299 299 299 299 296 295 293 294 295 294
295 300 300 298 296 295 294 293 291 289 285 287 285 287 289 289 290 291 291 292 292 290 289 285 287 282 279 276 279 283 286 286 287 287 288 289 290 291 292 290 292 292 293 294 295 299 298 297 294 294 294 295 295 294
299 298 298 297 294 293 289 289 292 287 288 289 289 291 291 289 289 289 291 290 291 291 288 286 282 281 281 286 285 285 286 286 285 287 288 289 290 290 291 291 292 291 292 292 294 294 297 297 296 295 295 294 293 293
299 298 298 296 296 293 290 290 294 288 286 288 291 290 290 288 288 288 288 288 288 287 285 283 283 284 286 287 288 288 287 287 287 285 285 287 289 289 289 290 290 291 290 291 292 292 294 296 297 297 295 294 293 292
296 295 296 295 292 292 291 289 289 289 288 289 290 290 286 288 287 287 286 287 286 284 283 287 287 289 291 289 290 289 288 288 286 288 287 285 287 288 289 290 291 291 289 288 288 290 291 293 295 297 297 294 295 295
293 296 292 292 290 291 290 292 289 290 289 290 289 289 286 286 285 286 287 285 284 286 288 288 289 290 289 288 287 288 288 289 289 289 289 288 286 287 287 288 288 288 288 287 287 288 289 291 293 296 298 297 296 295
295 294 292 292 288 288 286 292 287 287 286 287 289 287 286 286 286 288 283 285 286 289 290 291 291 291 290 288 286 286 287 287 288 287 288 288 288 288 288 288 289 287 285 286 288 288 288 288 290 294 298 298 296 295
296 290 286 286 287 284 289 286 288 287 286 286 286 284 285 285 286 285 282 284 286 289 289 289 290 288 288 287 285 284 285 287 289 288 287 286 286 286 287 287 288 287 286 286 287 288 288 288 288 291 295 296 296 294
285 285 287 283 287 285 283 284 285 285 283 284 285 284 285 287 283 283 283 284 285 287 289 290 289 288 287 286 285 284 285 286 287 286 285 286 285 285 285 286 287 288 286 284 285 285 286 287 287 287 289 292 294 294
280 284 283 284 284 284 284 282 283 284 284 284 285 287 287 286 283 282 285 285 286 287 289 288 287 287 286 286 285 284 284 285 287 286 285 285 284 283 282 282 283 285 285 285 285 284 284 285 285 286 287 288 288 294
279 281 285 290 288 287 286 287 287 286 284 283 285 285 285 281 282 285 285 287 287 289 290 290 289 288 286 284 285 285 285 285 285 285 285 285 285 284 283 281 281 283 284 285 285 284 283 283 283 284 285 287 288 291
284 285 282 285 285 287 284 284 284 284 285 288 288 284 283 283 283 286 287 288 290 290 289 289 290 289 285 284 284 284 284 285 285 286 285 285 284 284 283 284 285 282 285 285 284 285 284 283 284 284 284 285 287 289
283 286 286 283 284 285 285 285 285 287 290 289 285 283 283 284 284 286 286 288 289 288 286 285 284 284 284 284 284 284 284 284 283 281 280 280 280 281 282 283 284 284 285 284 283 282 282 282 283 284 285 285 286 287
283 288 284 284 282 282 286 287 286 287 287 286 285 284 283 283 284 287 287 287 287 287 287 286 284 283 282 283 282 282 283 283 282 281 279 278 279 281 282 282 283 283 284 284 283 284 282 284 284 285 285 285 283 283
286 286 285 284 284 287 286 287 287 286 285 284 285 283 282 283 285 285 285 285 285 285 284 283 283 284 283 283 283 282 281 283 282 281 281 282 281 281 281 281 282 283 284 283 283 282 281 281 281 281 281 281 281 281
285 284 284 282 283 286 289 287 285 283 283 283 282 284 283 282 280 283 285 285 284 284 283 284 284 284 285 285 284 284 283 283 283 282 281 281 280 280 280 280 281 282 282 282 282 281 280 279 279 278 278 278 279 279
284 284 286 285 284 284 287 285 283 282 282 282 282 282 281 281 278 283 286 286 286 285 285 285 285 284 284 284 284 282 283 282 280 278 278 277 277 277 279 279 280 281 281 281 281 281 279 278 277 277 276 276 277 278

GFSWCAN_sfc_thetae_069.txt.gz
Theta_e
309 309 309 309 309 308 307 306 303 303 304 304 306 308 305 303 302 301 299 306 298 293 294 298 299 295 296 297 293 298 296 298 295 291 292 291 289 291 291 294 292 291 289 288 289 285 283 302 299 291 299 303 302 302
309 308 308 309 309 308 307 305 303 303 304 304 304 308 306 303 302 302 296 304 303 294 294 302 301 302 301 301 298 298 297 295 296 293 295 293 290 292 291 287 297 290 295 290 292 292 301 303 302 304 304 302 301 299
309 309 308 308 308 308 307 305 303 303 304 303 304 307 307 303 302 302 298 301 299 293 295 299 299 304 305 305 306 295 298 300 298 303 298 295 289 293 289 290 292 296 299 295 293 297 298 299 301 302 301 301 300 300
308 308 308 308 308 307 307 305 303 303 304 303 304 306 307 303 301 302 299 302 299 294 290 297 305 301 307 307 305 305 302 302 303 301 295 293 291 297 292 293 292 294 297 290 292 296 297 298 300 300 300 302 300 300
307 308 308 308 308 307 307 305 304 303 303 303 305 305 307 302 302 302 301 302 301 294 290 293 300 304 307 306 304 305 302 300 296 294 294 292 297 296 297 296 292 292 290 287 286 293 292 294 297 298 297 299 299 298
307 307 307 308 308 308 307 305 304 303 303 304 305 305 305 301 300 298 293 301 302 300 292 288 302 303 305 305 302 300 301 299 297 294 294 298 299 294 290 291 294 295 297 295 289 293 293 295 297 301 299 298 299 296
307 307 307 308 308 308 307 305 304 303 303 303 304 304 301 300 299 294 294 296 303 302 292 289 295 301 303 302 302 301 301 297 295 294 293 295 298 294 290 287 292 296 294 292 295 296 293 297 297 300 300 298 298 295
306 306 307 307 307 307 306 305 304 303 303 303 303 301 300 299 297 294 298 302 303 297 295 287 291 297 304 298 297 304 297 295 293 293 296 293 294 295 290 293 294 293 291 293 293 296 298 301 299 299 297 296 293 292
306 306 306 307 307 307 305 304 304 303 303 303 301 299 298 295 293 298 303 303 302 296 289 289 291 291 301 298 300 301 302 292 297 291 295 293 294 291 292 291 291 290 290 290 294 297 300 297 298 296 295 293 291 290
305 306 306 306 307 306 305 304 303 303 304 301 299 295 291 297 303 303 297 292 291 292 293 291 297 292 300 297 295 297 300 295 291 293 295 290 292 295 295 295 292 291 292 294 293 295 297 295 297 294 293 293 292 291
305 305 306 306 307 306 304 303 303 303 300 296 292 292 297 300 300 296 291 289 289 288 293 294 295 294 300 292 293 297 294 295 290 290 290 291 290 292 296 294 292 293 294 296 299 301 300 298 296 294 293 293 292 291
305 305 306 306 306 305 304 303 301 299 296 296 297 299 297 294 292 288 288 292 291 289 295 294 295 297 297 302 297 298 291 293 287 294 291 289 290 294 295 291 292 293 295 297 300 300 300 298 298 295 293 292 291 291
305 305 305 306 306 304 304 302 300 298 298 298 294 292 291 290 284 284 283 287 289 294 296 295 293 296 297 300 296 294 289 290 299 293 288 289 292 294 293 292 292 294 295 296 298 300 300 298 297 296 293 292 292 291
304 305 305 306 304 304 304 301 299 299 298 291 289 284 285 286 288 290 292 293 296 296 295 296 296 295 296 294 295 288 293 295 289 287 286 291 292 292 293 293 292 292 293 295 298 299 299 297 296 297 295 294 291 289
304 305 305 304 304 304 302 300 300 299 295 291 291 284 286 292 295 297 297 295 296 299 297 295 296 297 295 291 292 290 288 284 286 284 288 292 292 291 292 293 292 291 292 294 297 299 299 299 297 296 297 296 295 291
304 304 303 304 303 302 301 299 296 296 293 292 291 289 292 292 292 293 293 294 298 299 298 299 293 291 286 290 286 286 285 282 285 289 292 292 292 291 292 293 293 293 292 294 296 298 299 299 298 297 298 297 296 294
303 300 303 302 301 300 298 294 293 290 291 290 290 294 293 294 293 294 295 297 301 296 294 296 288 287 293 286 282 287 285 287 292 292 291 291 291 291 292 293 293 293 292 293 294 297 298 300 300 299 297 297 297 296
300 302 302 300 297 296 294 295 292 290 287 291 289 292 294 296 295 296 299 301 297 297 296 292 296 290 287 278 287 290 291 294 293 291 291 291 292 292 292 293 294 295 293 291 293 296 297 298 298 298 300 298 297 296
301 300 299 298 298 295 292 292 295 287 290 292 293 294 295 297 299 299 300 302 302 301 297 295 290 291 292 295 293 293 294 294 291 290 291 292 293 292 292 295 295 295 294 291 290 291 293 296 297 298 298 298 296 296
300 298 299 299 299 294 290 291 297 293 290 292 294 294 296 295 297 298 299 299 298 297 292 291 292 295 294 294 295 297 295 295 291 289 289 291 293 293 292 293 293 295 294 294 294 290 290 291 294 296 296 299 295 294
297 297 298 298 296 296 295 293 292 294 294 292 295 296 294 297 296 296 296 299 295 295 292 295 294 295 297 297 297 298 295 294 291 291 291 292 296 296 294 294 295 294 292 290 290 291 291 289 290 294 297 300 298 296
295 297 294 295 294 294 294 296 294 296 294 295 295 296 294 293 294 295 297 293 294 295 297 295 295 295 295 295 295 297 295 295 295 296 289 294 293 294 295 295 295 293 292 290 289 289 290 292 291 292 296 298 299 297
297 296 295 295 290 291 290 297 292 294 290 292 294 291 292 294 295 297 293 295 295 298 297 297 296 297 295 295 296 296 296 296 296 294 294 294 294 294 294 295 294 292 292 293 292 291 291 290 292 290 293 297 299 298
296 293 290 290 291 288 293 291 294 293 293 291 290 288 290 292 295 292 290 292 295 296 296 296 296 294 294 293 293 294 296 298 296 294 294 294 293 293 294 294 294 293 294 294 294 294 294 294 291 293 290 292 295 297
289 287 289 285 292 289 288 288 289 290 288 290 289 290 292 294 290 289 289 293 294 295 296 296 296 295 294 293 292 292 296 297 295 293 293 293 293 294 293 294 294 292 294 293 292 292 293 294 294 293 292 289 290 293
284 288 287 288 288 288 289 286 287 288 289 288 289 292 294 291 287 286 292 295 295 297 297 296 296 295 295 295 293 293 293 297 297 293 292 292 291 291 290 290 290 290 293 293 292 291 291 292 293 293 292 291 287 289
283 285 291 295 293 292 290 292 293 291 288 287 291 289 289 285 285 290 298 298 298 298 299 299 298 296 294 294 294 294 295 296 294 292 293 293 292 292 291 289 288 288 292 292 292 291 290 291 291 292 292 293 292 289
289 289 286 289 291 293 288 290 289 288 290 293 292 287 286 286 287 292 294 296 297 298 299 298 299 297 295 294 294 294 293 294 293 294 293 293 293 292 292 292 292 285 291 292 291 292 290 291 291 291 292 292 292 292
288 293 291 288 288 290 290 290 290 293 296 295 291 290 289 288 290 294 295 296 298 297 295 295 294 295 294 294 294 294 294 295 292 289 288 289 289 289 291 291 291 291 292 292 284 286 289 289 291 291 292 292 292 291
289 293 289 288 287 287 292 295 293 296 297 296 293 291 289 290 294 297 296 295 294 294 294 294 294 293 292 291 290 291 293 293 292 291 288 287 288 289 289 289 289 290 291 291 291 291 286 289 289 291 290 290 289 288
292 291 289 289 288 291 292 294 295 295 295 294 295 290 287 288 291 294 295 296 296 296 294 293 293 293 292 292 291 290 289 291 290 288 288 290 290 289 288 288 289 289 289 290 290 289 287 287 287 286 286 286 286 285
290 288 288 286 287 292 293 291 290 290 290 290 290 290 289 288 285 290 294 295 294 293 289 292 292 292 293 293 292 291 287 291 290 288 286 287 287 286 287 287 287 288 288 288 288 288 286 283 282 282 282 282 282 281
288 289 289 288 287 287 289 289 288 286 287 287 287 288 288 287 283 288 293 294 294 293 292 293 293 293 292 292 291 290 288 287 282 280 280 279 279 280 284 285 285 286 286 286 286 286 285 282 281 280 280 280 280 280

GFSWCAN_sfc_thetae_072.txt.gz
Theta_e
309 309 309 310 310 310 309 309 307 305 304 304 304 306 306 305 303 301 299 301 298 294 295 296 297 295 295 296 292 297 296 297 295 291 292 292 289 291 291 293 292 290 289 288 289 285 282 300 298 291 296 301 301 300
309 308 308 308 309 309 309 308 307 305 304 304 304 305 305 306 303 302 296 303 304 295 294 299 298 299 300 300 297 298 296 297 296 293 295 294 290 292 291 286 296 290 293 288 292 292 301 301 299 302 302 299 299 299
309 309 308 308 308 308 308 308 307 305 304 304 304 305 305 306 303 302 299 301 300 294 295 297 296 303 306 304 306 295 299 301 300 303 297 295 290 294 289 290 293 296 299 294 293 296 297 297 300 300 300 298 300 300
308 308 308 308 308 308 308 308 307 305 304 304 304 304 305 306 303 302 298 301 299 294 288 295 306 302 307 307 305 305 302 305 303 300 296 294 292 298 293 294 292 293 296 290 291 295 294 296 296 298 298 298 298 298
307 308 308 308 308 308 308 308 307 305 304 304 304 304 305 305 302 301 301 301 301 294 289 290 298 303 305 306 304 304 304 300 297 294 294 293 297 297 297 297 290 294 291 287 286 292 291 292 297 299 297 298 298 296
307 307 307 308 308 308 308 308 307 305 305 305 304 304 305 304 302 297 293 300 301 301 291 287 299 302 303 305 303 301 301 300 299 295 293 297 301 297 290 290 294 296 296 296 290 293 293 296 299 299 298 298 297 295
306 307 307 307 308 308 308 308 307 306 305 304 303 304 304 302 300 294 294 297 301 302 292 288 292 301 304 303 302 301 303 298 298 294 293 295 297 296 291 288 295 296 294 293 296 295 292 295 294 299 299 298 297 295
306 307 307 307 307 307 307 308 307 306 304 303 303 304 302 301 297 294 300 301 301 296 295 287 289 296 304 297 297 304 297 297 295 295 297 296 297 293 289 293 295 294 292 293 294 294 294 297 300 298 299 296 293 292
306 306 307 307 307 307 307 307 306 305 303 303 303 301 298 295 292 297 302 302 303 296 288 289 288 291 303 299 300 303 301 292 297 292 295 295 293 289 292 293 292 291 290 290 293 296 298 298 297 297 295 293 290 290
305 306 306 306 306 307 307 306 305 304 303 302 299 294 291 296 303 302 296 292 292 292 292 288 295 291 298 296 295 296 300 296 288 292 295 290 292 296 295 294 293 292 293 294 293 293 296 296 296 295 293 293 292 290
305 305 306 306 307 307 307 306 304 303 302 297 293 293 298 301 298 295 289 288 288 287 291 293 293 292 300 292 293 298 295 297 290 290 290 290 288 292 295 294 293 294 295 296 296 298 300 299 296 295 293 293 292 290
305 305 306 306 306 307 306 304 304 300 297 298 297 299 298 294 292 289 288 291 289 288 294 293 295 297 298 300 295 297 293 295 287 295 290 288 291 294 295 294 293 294 294 294 297 298 300 300 298 296 294 294 293 292
305 305 305 305 306 306 305 304 302 301 300 299 295 291 291 291 285 283 283 288 290 294 297 296 293 297 298 298 296 294 289 291 299 292 288 290 294 295 294 294 293 294 293 294 296 298 299 300 300 298 295 295 294 293
304 305 305 305 306 305 304 302 301 301 298 292 290 284 287 285 287 288 290 292 296 296 296 296 295 295 297 295 296 290 295 295 289 288 286 291 293 294 294 294 293 292 293 293 294 297 298 299 299 299 298 296 294 292
304 304 305 305 306 304 302 302 301 300 296 291 290 285 286 292 295 296 297 296 296 298 297 295 297 297 295 292 293 291 289 285 286 285 289 294 294 293 294 292 294 292 292 292 294 296 297 298 299 298 299 297 295 293
304 304 304 305 304 302 302 300 297 297 293 291 291 289 293 291 293 295 295 294 297 297 297 297 294 292 289 290 288 286 286 284 286 291 293 294 293 292 292 293 294 294 294 292 293 295 297 297 298 299 299 297 295 294
304 300 304 303 301 301 299 295 294 291 291 290 290 294 294 295 294 294 295 296 299 296 292 294 289 289 293 288 285 289 286 289 293 293 294 293 292 292 292 293 293 294 294 292 291 292 294 297 299 298 296 298 296 295
301 303 302 301 298 297 295 295 293 291 288 291 289 293 295 296 295 295 297 299 297 295 296 292 297 290 288 286 288 292 293 295 295 293 292 293 293 293 293 293 294 295 295 294 294 293 292 292 295 295 297 297 296 295
301 300 300 299 298 296 292 292 294 288 290 293 294 296 296 296 299 299 298 299 300 300 297 295 291 291 292 294 293 294 294 295 293 293 293 294 295 294 294 294 295 295 294 293 294 293 292 293 294 295 297 298 295 294
300 299 299 300 301 295 291 292 297 293 290 293 295 294 294 296 297 297 297 298 297 296 292 291 292 294 294 295 296 296 295 295 293 290 292 295 297 297 296 296 295 295 294 292 293 291 293 293 294 294 296 297 296 293
298 298 299 299 297 296 295 292 292 295 295 293 295 294 294 296 295 295 296 299 295 295 292 296 295 296 298 298 298 298 296 295 294 294 294 294 297 297 297 297 296 296 294 292 291 291 291 292 292 293 295 297 299 295
295 297 295 296 294 294 294 297 295 297 295 294 294 295 293 292 293 295 298 294 294 295 297 296 296 296 295 295 297 297 297 297 297 295 290 294 293 294 295 295 294 293 293 293 294 293 293 294 294 292 292 295 297 298
298 298 295 295 290 291 290 298 292 294 291 293 294 292 292 293 295 298 293 295 296 299 298 298 297 298 296 297 297 297 297 296 294 294 295 295 295 295 295 295 294 293 292 293 294 294 295 292 294 294 292 293 295 297
298 294 291 290 291 288 294 291 295 294 294 292 291 290 292 294 297 293 290 292 295 297 297 297 297 294 294 295 295 295 296 298 295 294 295 294 293 294 295 294 293 293 294 294 293 294 293 294 293 294 293 291 291 293
289 288 289 286 293 290 289 289 290 291 289 292 290 290 292 296 290 289 289 294 295 296 297 297 297 295 293 293 294 294 297 297 295 292 293 294 294 294 294 294 293 293 294 292 291 291 291 293 293 294 294 291 289 290
285 289 287 289 290 289 290 287 289 290 291 290 291 294 294 291 288 287 292 296 296 297 297 297 296 296 295 295 293 293 294 297 297 292 292 293 292 292 291 290 289 289 293 293 292 291 290 292 291 292 292 293 289 289
284 286 292 296 294 294 292 294 294 292 289 289 292 291 290 286 286 292 297 299 299 300 300 300 299 297 296 295 296 295 296 297 295 293 294 293 293 293 292 289 288 289 293 292 292 291 290 291 291 291 292 293 293 292
290 291 288 291 292 295 289 290 290 290 290 294 293 289 287 287 288 295 296 299 301 301 299 300 300 299 297 295 295 295 294 294 294 294 294 293 293 293 292 292 292 287 292 292 292 291 290 290 290 291 291 291 291 292
290 293 293 289 290 291 291 291 291 294 297 295 291 290 289 291 295 295 297 298 300 298 296 295 295 296 295 296 296 296 296 295 293 290 290 290 290 290 291 291 291 292 292 292 283 287 288 289 290 290 290 290 290 290
290 294 291 289 288 289 293 296 294 297 297 295 293 292 292 294 296 299 298 297 295 294 295 295 295 294 293 292 292 292 293 294 294 293 291 289 289 290 290 290 290 290 291 291 291 291 286 288 287 289 288 288 287 286
294 293 291 290 290 292 294 296 296 296 295 294 294 291 290 292 294 297 297 297 297 296 295 293 293 294 293 293 292 290 289 291 290 289 290 291 290 289 289 289 289 290 290 290 289 289 287 285 285 284 284 284 283 283
292 290 289 287 288 292 295 292 292 292 291 290 289 290 290 289 287 291 294 296 295 294 289 293 293 293 294 294 294 292 288 290 288 287 286 287 287 286 288 287 287 288 288 288 288 288 285 283 282 281 280 280 280 280
290 291 291 289 288 288 290 290 289 288 289 289 288 289 289 287 283 289 294 296 295 295 294 295 294 294 293 292 291 289 286 285 282 281 281 280 280 281 284 284 284 286 286 286 286 285 285 282 281 280 279 278 278 278

GFSWCAN_sfc_thetae_075.txt.gz
Theta_e
309 309 309 309 309 309 310 310 310 310 306 305 305 305 305 306 305 300 298 300 296 291 293 296 296 292 293 292 288 292 292 295 292 287 288 288 284 286 284 289 288 286 285 284 285 283 281 296 295 287 292 295 294 294
309 308 308 308 309 309 309 309 309 309 307 306 305 305 305 306 306 302 295 303 303 294 293 297 297 298 297 295 292 294 292 294 294 288 290 289 284 286 285 279 293 285 289 286 287 284 295 294 294 297 296 293 294 294
309 309 309 308 308 308 308 308 309 309 307 306 305 305 305 305 306 302 298 299 297 293 292 294 294 299 301 299 299 292 296 298 296 297 291 291 285 288 284 284 288 291 294 287 286 293 291 292 295 295 296 294 296 297
308 308 308 308 308 308 307 308 308 309 308 306 305 305 304 305 306 303 298 300 296 294 287 291 302 300 304 303 302 303 299 301 298 296 290 291 287 293 288 289 288 291 293 288 287 290 291 294 294 295 294 296 296 297
307 308 308 308 308 308 308 308 308 308 308 306 305 305 304 305 305 302 300 300 300 293 287 288 294 298 301 303 303 302 300 297 295 290 289 290 293 292 292 290 289 292 289 286 284 290 290 291 294 295 295 295 297 296
305 306 307 308 308 308 308 308 308 308 308 306 306 305 304 305 303 297 292 299 300 298 289 285 296 295 301 303 302 300 299 298 297 294 292 293 299 294 288 285 294 295 294 292 290 294 293 294 295 296 295 296 295 295
305 306 307 307 308 307 307 308 308 308 308 306 306 304 304 304 299 294 293 297 300 300 290 286 288 298 301 301 300 298 300 297 296 294 291 290 292 294 290 285 292 293 292 292 294 294 291 293 292 296 297 296 296 295
305 306 306 307 307 307 307 308 308 308 307 305 304 303 304 302 298 295 300 301 301 296 293 286 287 292 302 295 295 301 295 295 294 293 293 292 295 293 287 292 294 292 291 292 293 294 293 295 298 298 298 295 293 292
305 306 306 306 307 307 307 307 308 307 305 304 304 301 298 295 292 296 302 302 300 294 287 288 286 286 301 297 299 299 298 290 295 290 292 293 291 288 290 291 291 290 290 291 293 294 295 295 296 297 295 293 291 291
305 305 306 306 306 306 306 307 308 305 304 303 299 294 290 295 301 303 296 291 291 291 291 286 292 287 295 295 294 294 296 292 287 290 295 290 290 293 294 292 291 292 293 294 291 290 292 294 296 296 295 294 293 291
304 305 305 306 307 307 307 307 305 304 302 297 293 292 298 302 297 294 288 287 287 285 288 289 289 288 296 291 290 294 290 293 288 288 289 287 287 290 293 294 293 294 294 293 294 295 296 296 296 295 296 294 293 291
304 305 305 306 306 306 307 306 304 299 296 297 297 299 298 294 291 288 287 289 287 286 292 290 293 293 296 298 291 292 288 291 285 293 289 286 290 292 293 293 293 294 293 293 294 294 295 297 297 297 296 294 294 292
304 305 305 305 306 306 307 304 303 302 301 299 295 291 290 290 284 282 281 286 288 293 295 294 292 295 295 296 294 292 289 287 295 290 286 288 291 293 293 293 293 294 294 293 293 294 295 296 297 298 295 295 294 292
304 304 305 305 305 306 305 304 303 301 298 291 289 284 286 284 286 287 287 291 295 296 296 295 294 293 294 292 293 289 292 293 287 286 284 288 290 291 292 292 292 292 293 293 292 293 294 295 295 296 297 296 295 291
303 304 305 305 305 306 304 303 303 300 296 290 290 284 286 291 293 295 295 295 297 298 295 295 295 295 292 290 291 289 287 284 285 283 288 290 290 291 290 290 291 292 293 292 292 292 293 293 293 294 296 297 295 293
303 304 303 305 305 304 302 301 298 297 293 290 290 288 292 291 291 293 295 295 299 295 296 296 293 290 288 288 287 286 283 283 285 290 291 290 289 290 290 291 292 293 293 293 293 293 293 292 292 293 295 296 295 293
303 300 304 304 303 302 300 294 294 291 290 289 288 293 292 294 294 295 295 295 298 295 290 293 289 288 291 287 285 286 284 288 290 290 290 291 291 290 291 291 292 293 294 293 293 294 292 293 293 292 291 294 295 294
301 304 304 302 299 297 295 295 293 290 288 290 288 292 294 295 294 295 297 298 297 295 295 292 296 290 286 285 285 289 291 292 292 290 290 291 292 293 292 292 293 293 293 292 292 292 292 292 291 291 292 294 295 293
302 301 301 300 298 295 291 292 293 288 289 292 293 294 295 295 298 298 298 299 300 300 296 293 290 289 291 293 291 291 292 292 290 289 290 292 293 293 293 294 295 293 291 291 291 290 291 293 292 291 292 294 294 293
301 300 300 301 302 295 291 291 296 291 289 291 294 293 294 294 297 298 297 297 296 294 291 290 291 293 292 293 294 293 293 292 290 288 290 292 294 295 293 293 292 293 291 290 290 290 291 292 292 292 292 292 293 292
298 299 300 300 298 296 294 292 291 293 295 292 294 294 293 296 294 294 295 297 294 292 290 293 293 294 296 296 296 295 294 293 291 291 290 289 293 293 292 292 292 291 290 290 290 291 291 291 292 293 291 291 293 295
296 299 296 297 294 294 293 297 294 297 294 294 293 294 292 291 292 293 297 292 292 294 295 294 294 294 294 295 295 295 295 295 295 292 289 291 290 291 290 290 290 289 290 289 290 289 290 292 292 293 291 291 292 294
299 298 296 295 291 290 289 298 292 293 290 291 293 290 291 292 295 298 291 294 296 298 296 296 297 297 295 296 296 296 296 295 292 292 292 292 292 292 291 290 290 289 288 288 290 290 290 290 291 292 292 291 291 291
300 294 290 289 290 288 294 291 293 293 293 292 290 289 291 293 296 292 289 292 295 297 295 296 294 293 294 295 293 293 294 294 292 292 292 291 291 291 291 290 290 290 290 290 289 289 290 290 290 291 291 290 289 289
289 288 289 286 292 290 289 289 290 290 289 291 290 290 292 295 290 289 289 292 294 295 295 295 294 292 291 292 293 292 295 294 291 289 291 291 291 291 290 290 289 289 290 288 288 288 288 289 290 290 290 289 289 289
284 288 286 288 290 289 290 287 288 289 291 290 291 294 294 291 287 287 292 295 294 296 296 296 294 292 292 292 291 291 292 295 293 290 290 290 290 289 287 286 285 286 290 289 288 287 287 288 288 289 289 288 287 288
284 285 291 295 294 293 292 293 293 291 289 289 291 290 290 285 286 291 296 298 298 298 299 299 298 295 293 293 293 293 294 294 292 291 291 290 290 290 288 286 285 286 290 290 289 288 287 288 287 288 288 288 287 288
290 291 288 290 292 294 290 290 290 289 291 294 293 288 287 287 287 294 297 300 301 300 299 299 299 296 294 293 293 293 292 292 293 292 291 290 291 290 290 290 290 287 289 289 289 288 287 287 286 287 287 286 285 286
290 293 292 289 290 291 291 291 291 294 296 295 291 289 288 291 295 296 297 299 299 298 295 293 293 294 294 294 294 294 294 293 290 288 287 286 286 286 289 289 289 289 290 287 282 285 285 285 285 285 286 285 284 284
291 295 290 289 288 289 292 295 293 295 295 293 293 292 292 294 297 299 297 297 295 295 294 294 293 292 291 290 289 290 291 290 292 290 287 286 286 287 287 287 287 287 288 288 288 287 284 285 283 283 283 282 281 280
294 293 290 291 290 292 294 296 296 295 294 293 293 290 289 291 292 294 293 295 296 295 294 292 292 293 292 291 290 288 285 288 287 287 287 288 286 286 286 286 286 287 287 287 287 285 283 282 281 279 279 279 279 278
292 290 289 287 287 292 294 292 292 290 291 289 288 291 290 289 286 290 293 293 294 293 290 292 291 290 291 289 287 286 284 284 283 282 283 283 283 283 284 284 284 285 285 286 285 283 282 280 279 278 278 277 277 278
291 291 290 289 287 288 290 289 288 286 287 287 288 288 288 286 283 287 293 293 292 293 291 291 291 290 289 287 285 283 282 281 280 279 279 279 278 280 281 281 282 284 284 284 283 282 280 278 277 275 275 276 276 276